,,,PA_Meas_PMT16A,,PR_Meas_QMR101_102,,RH_Meas_QMH101,,SR_Meas_QMS101,,TA_Meas_QMH101,,GenWind,,GenWind,
date,time,status,PA,status,PR,status,RH,status,SR,status,TA,status,DirAvg,status,SpdAvg,
2012-05-19, 00:00:05,VALID,1004.42,VALID,0,VALID,91.1041,VALID,0,VALID,24.93,VALID,17,VALID,0,
2012-05-19, 00:01:05,VALID,1004.43,VALID,0,VALID,91.2109,VALID,0,VALID,24.9106,VALID,17,VALID,0,
2012-05-19, 00:02:05,VALID,1004.39,VALID,0,VALID,91.3482,VALID,0,VALID,24.8911,VALID,17,VALID,0,
2012-05-19, 00:03:05,VALID,1004.4,VALID,0,VALID,91.5313,VALID,0,VALID,24.8327,VALID,17,VALID,0,
2012-05-19, 00:04:05,VALID,1004.4,VALID,0,VALID,91.722,VALID,0,VALID,24.8346,VALID,17,VALID,0,
2012-05-19, 00:05:05,VALID,1004.39,VALID,0,VALID,91.8746,VALID,0,VALID,24.7937,VALID,17,VALID,0,
2012-05-19, 00:06:05,VALID,1004.39,VALID,0,VALID,92.0119,VALID,0,VALID,24.7743,VALID,17,VALID,0,
2012-05-19, 00:07:05,VALID,1004.37,VALID,0,VALID,92.1187,VALID,0,VALID,24.7761,VALID,17,VALID,0,
2012-05-19, 00:08:05,VALID,1004.37,VALID,0,VALID,92.1874,VALID,0,VALID,24.7353,VALID,17,VALID,0,
2012-05-19, 00:09:05,VALID,1004.33,VALID,0,VALID,92.3095,VALID,0,VALID,24.7353,VALID,17,VALID,0,
2012-05-19, 00:10:05,VALID,1004.32,VALID,0,VALID,92.3857,VALID,0,VALID,24.7159,VALID,17,VALID,0,
2012-05-19, 00:11:05,VALID,1004.3,VALID,0,VALID,92.4544,VALID,0,VALID,24.7159,VALID,15,VALID,0,
2012-05-19, 00:12:05,VALID,1004.31,VALID,0,VALID,92.4697,VALID,0,VALID,24.7353,VALID,15,VALID,0,
2012-05-19, 00:13:05,VALID,1004.3,VALID,0,VALID,92.462,VALID,0,VALID,24.6945,VALID,15,VALID,0,
2012-05-19, 00:14:05,VALID,1004.26,VALID,0,VALID,92.4239,VALID,0,VALID,24.7353,VALID,354,VALID,0.385547,
2012-05-19, 00:15:05,VALID,1004.27,VALID,0,VALID,92.3095,VALID,0,VALID,24.7548,VALID,342,VALID,0,
2012-05-19, 00:16:05,VALID,1004.28,VALID,0,VALID,92.0272,VALID,0,VALID,24.8113,VALID,343,VALID,0.4625,
2012-05-19, 00:17:05,VALID,1004.26,VALID,0,VALID,91.6839,VALID,0,VALID,24.9106,VALID,340,VALID,0.339453,
2012-05-19, 00:18:05,VALID,1004.26,VALID,0,VALID,91.3101,VALID,0,VALID,24.9671,VALID,328,VALID,0,
2012-05-19, 00:19:05,VALID,1004.27,VALID,0,VALID,90.8905,VALID,0,VALID,25.006,VALID,328,VALID,0.353516,
2012-05-19, 00:20:05,VALID,1004.26,VALID,0,VALID,90.5396,VALID,0,VALID,25.0663,VALID,328,VALID,0.351172,
2012-05-19, 00:21:05,VALID,1004.27,VALID,0,VALID,90.2115,VALID,0,VALID,25.1248,VALID,328,VALID,0.422266,
2012-05-19, 00:22:05,VALID,1004.29,VALID,0,VALID,89.9598,VALID,0,VALID,25.1637,VALID,330,VALID,0.515625,
2012-05-19, 00:23:05,VALID,1004.3,VALID,0,VALID,89.7233,VALID,0,VALID,25.2027,VALID,342,VALID,0.384766,
2012-05-19, 00:24:05,VALID,1004.31,VALID,0,VALID,89.3647,VALID,0,VALID,25.263,VALID,342,VALID,0.510156,
2012-05-19, 00:25:05,VALID,1004.31,VALID,0,VALID,89.1664,VALID,0,VALID,25.3,VALID,342,VALID,0.309375,
2012-05-19, 00:26:05,VALID,1004.32,VALID,0,VALID,88.8536,VALID,0,VALID,25.3195,VALID,335,VALID,0.433984,
2012-05-19, 00:27:05,VALID,1004.36,VALID,0,VALID,88.762,VALID,0,VALID,25.3584,VALID,336,VALID,0.386328,
2012-05-19, 00:28:05,VALID,1004.35,VALID,0,VALID,88.9222,VALID,0.0815089,VALID,25.3546,VALID,336,VALID,0.221875,
2012-05-19, 00:29:05,VALID,1004.35,VALID,0,VALID,89.0061,VALID,0,VALID,25.3584,VALID,336,VALID,0.244141,
2012-05-19, 00:30:05,VALID,1004.37,VALID,0,VALID,89.1511,VALID,0.0815089,VALID,25.3176,VALID,337,VALID,0.495313,
2012-05-19, 00:31:05,VALID,1004.37,VALID,0,VALID,89.1969,VALID,0,VALID,25.339,VALID,337,VALID,0.434766,
2012-05-19, 00:32:05,VALID,1004.4,VALID,0,VALID,89.3342,VALID,0,VALID,25.3195,VALID,337,VALID,0.463281,
2012-05-19, 00:33:05,VALID,1004.37,VALID,0,VALID,89.3113,VALID,0.0815089,VALID,25.3195,VALID,352,VALID,0.999219,
2012-05-19, 00:34:05,VALID,1004.39,VALID,0,VALID,89.3494,VALID,0,VALID,25.337,VALID,344,VALID,0.518359,
2012-05-19, 00:35:05,VALID,1004.38,VALID,0,VALID,89.4105,VALID,0,VALID,25.3584,VALID,347,VALID,0.500781,
2012-05-19, 00:36:05,VALID,1004.42,VALID,0,VALID,89.296,VALID,0.0815089,VALID,25.3176,VALID,347,VALID,0.519922,
2012-05-19, 00:37:05,VALID,1004.39,VALID,0,VALID,89.1969,VALID,0.0815089,VALID,25.3584,VALID,347,VALID,0.402344,
2012-05-19, 00:38:05,VALID,1004.41,VALID,0,VALID,89.1892,VALID,0,VALID,25.3974,VALID,345,VALID,0.492578,
2012-05-19, 00:39:05,VALID,1004.38,VALID,0,VALID,89.0367,VALID,0,VALID,25.4169,VALID,345,VALID,0.520312,
2012-05-19, 00:40:05,VALID,1004.34,VALID,0,VALID,89.2121,VALID,0,VALID,25.4169,VALID,345,VALID,0.267578,
2012-05-19, 00:41:05,VALID,1004.34,VALID,0,VALID,89.2274,VALID,0,VALID,25.3779,VALID,345,VALID,0.486719,
2012-05-19, 00:42:05,VALID,1004.33,VALID,0,VALID,89.2579,VALID,0,VALID,25.3565,VALID,345,VALID,0.385156,
2012-05-19, 00:43:05,VALID,1004.31,VALID,0,VALID,89.2808,VALID,0,VALID,25.3779,VALID,345,VALID,0.283984,
2012-05-19, 00:44:05,VALID,1004.3,VALID,0,VALID,89.296,VALID,0,VALID,25.3584,VALID,345,VALID,0.155078,
2012-05-19, 00:45:05,VALID,1004.27,VALID,0,VALID,89.3266,VALID,0,VALID,25.3604,VALID,345,VALID,0.289063,
2012-05-19, 00:46:05,VALID,1004.24,VALID,0,VALID,89.2655,VALID,0,VALID,25.3604,VALID,345,VALID,0.426172,
2012-05-19, 00:47:05,VALID,1004.21,VALID,0,VALID,89.1892,VALID,0,VALID,25.339,VALID,345,VALID,0.212109,
2012-05-19, 00:48:04,VALID,1004.22,VALID,0,VALID,89.1435,VALID,0,VALID,25.337,VALID,348,VALID,0.521094,
2012-05-19, 00:49:04,VALID,1004.21,VALID,0,VALID,89.0901,VALID,0,VALID,25.3176,VALID,348,VALID,0.312891,
2012-05-19, 00:50:04,VALID,1004.2,VALID,0,VALID,89.1587,VALID,0,VALID,25.3584,VALID,348,VALID,0,
2012-05-19, 00:51:04,VALID,1004.22,VALID,0,VALID,89.1435,VALID,0,VALID,25.339,VALID,348,VALID,0,
2012-05-19, 00:52:04,VALID,1004.2,VALID,0,VALID,89.1206,VALID,0,VALID,25.3195,VALID,348,VALID,0,
2012-05-19, 00:53:04,VALID,1004.2,VALID,0,VALID,89.2884,VALID,0.0815089,VALID,25.3,VALID,348,VALID,0,
2012-05-19, 00:54:04,VALID,1004.21,VALID,0,VALID,89.3037,VALID,0,VALID,25.2981,VALID,348,VALID,0,
2012-05-19, 00:55:04,VALID,1004.22,VALID,0,VALID,89.296,VALID,0.0815089,VALID,25.3176,VALID,10,VALID,0.370313,
2012-05-19, 00:56:04,VALID,1004.19,VALID,0,VALID,89.1816,VALID,0,VALID,25.3176,VALID,10,VALID,0,
2012-05-19, 00:57:04,VALID,1004.19,VALID,0,VALID,89.235,VALID,0,VALID,25.337,VALID,10,VALID,0.129688,
2012-05-19, 00:58:04,VALID,1004.16,VALID,0,VALID,89.2884,VALID,0.0815089,VALID,25.2962,VALID,10,VALID,0,
2012-05-19, 00:59:04,VALID,1004.17,VALID,0,VALID,89.3494,VALID,0,VALID,25.3176,VALID,10,VALID,0.00429688,
2012-05-19, 01:00:04,VALID,1004.16,VALID,0,VALID,89.4181,VALID,0,VALID,25.2981,VALID,10,VALID,0,
2012-05-19, 01:01:04,VALID,1004.13,VALID,0,VALID,89.5402,VALID,0.0815089,VALID,25.2786,VALID,10,VALID,0,
2012-05-19, 01:02:04,VALID,1004.17,VALID,0,VALID,89.6012,VALID,0.0815089,VALID,25.2378,VALID,10,VALID,0,
2012-05-19, 01:03:04,VALID,1004.16,VALID,0,VALID,89.6699,VALID,0,VALID,25.2592,VALID,10,VALID,0,
2012-05-19, 01:04:04,VALID,1004.18,VALID,0,VALID,89.7461,VALID,0.0815089,VALID,25.2592,VALID,6,VALID,0.491406,
2012-05-19, 01:05:04,VALID,1004.18,VALID,0,VALID,89.8301,VALID,0,VALID,25.2397,VALID,6,VALID,0.241016,
2012-05-19, 01:06:04,VALID,1004.22,VALID,0,VALID,89.8301,VALID,0,VALID,25.2592,VALID,9,VALID,0.408203,
2012-05-19, 01:07:04,VALID,1004.21,VALID,0,VALID,89.8987,VALID,0,VALID,25.2806,VALID,9,VALID,0.330078,
2012-05-19, 01:08:04,VALID,1004.22,VALID,0,VALID,89.9674,VALID,0.0815089,VALID,25.2592,VALID,9,VALID,0.280469,
2012-05-19, 01:09:04,VALID,1004.19,VALID,0,VALID,90.2344,VALID,0,VALID,25.2416,VALID,9,VALID,0.414063,
2012-05-19, 01:10:04,VALID,1004.23,VALID,0,VALID,90.3336,VALID,0,VALID,25.2027,VALID,9,VALID,0.35,
2012-05-19, 01:11:04,VALID,1004.22,VALID,0,VALID,90.3641,VALID,0,VALID,25.1832,VALID,9,VALID,0.444922,
2012-05-19, 01:12:04,VALID,1004.23,VALID,0,VALID,90.448,VALID,0,VALID,25.1637,VALID,9,VALID,0.444922,
2012-05-19, 01:13:04,VALID,1004.23,VALID,0,VALID,90.6082,VALID,0,VALID,25.1851,VALID,9,VALID,0.303125,
2012-05-19, 01:14:04,VALID,1004.2,VALID,0,VALID,90.6082,VALID,0,VALID,25.1442,VALID,354,VALID,0.375781,
2012-05-19, 01:15:04,VALID,1004.2,VALID,0,VALID,90.7074,VALID,0,VALID,25.1442,VALID,354,VALID,0.378125,
2012-05-19, 01:16:04,VALID,1004.21,VALID,0,VALID,90.7837,VALID,0,VALID,25.1229,VALID,354,VALID,0.272266,
2012-05-19, 01:17:04,VALID,1004.21,VALID,0,VALID,90.9439,VALID,0,VALID,25.1053,VALID,354,VALID,0.321875,
2012-05-19, 01:18:04,VALID,1004.21,VALID,0,VALID,90.9668,VALID,0,VALID,25.0858,VALID,354,VALID,0.499219,
2012-05-19, 01:19:04,VALID,1004.21,VALID,0,VALID,91.0507,VALID,0,VALID,25.0858,VALID,354,VALID,0.371094,
2012-05-19, 01:20:04,VALID,1004.22,VALID,0,VALID,91.0812,VALID,0,VALID,25.0858,VALID,354,VALID,0.432422,
2012-05-19, 01:21:04,VALID,1004.2,VALID,0,VALID,91.1575,VALID,0,VALID,25.0663,VALID,354,VALID,0,
2012-05-19, 01:22:04,VALID,1004.22,VALID,0,VALID,91.3101,VALID,0,VALID,25.0469,VALID,354,VALID,0,
2012-05-19, 01:23:04,VALID,1004.25,VALID,0,VALID,91.3635,VALID,0,VALID,25.0469,VALID,354,VALID,0,
2012-05-19, 01:24:04,VALID,1004.25,VALID,0,VALID,91.455,VALID,0,VALID,25.0274,VALID,354,VALID,0,
2012-05-19, 01:25:04,VALID,1004.24,VALID,0,VALID,91.5542,VALID,0,VALID,25.0274,VALID,354,VALID,0,
2012-05-19, 01:26:04,VALID,1004.25,VALID,0,VALID,91.4932,VALID,0,VALID,25.0274,VALID,354,VALID,0,
2012-05-19, 01:27:04,VALID,1004.22,VALID,0,VALID,91.3864,VALID,0,VALID,25.0469,VALID,354,VALID,0,
2012-05-19, 01:28:04,VALID,1004.24,VALID,0,VALID,91.2719,VALID,0,VALID,25.0663,VALID,354,VALID,0,
2012-05-19, 01:29:04,VALID,1004.21,VALID,0,VALID,91.1651,VALID,0,VALID,25.1053,VALID,354,VALID,0,
2012-05-19, 01:30:04,VALID,1004.22,VALID,0,VALID,91.0736,VALID,0,VALID,25.1267,VALID,354,VALID,0,
2012-05-19, 01:31:04,VALID,1004.19,VALID,0,VALID,90.9363,VALID,0,VALID,25.1053,VALID,353,VALID,0,
2012-05-19, 01:32:04,VALID,1004.17,VALID,0,VALID,90.8066,VALID,0,VALID,25.1248,VALID,353,VALID,0,
2012-05-19, 01:33:04,VALID,1004.16,VALID,0,VALID,90.7379,VALID,0,VALID,25.1248,VALID,353,VALID,0,
2012-05-19, 01:34:04,VALID,1004.17,VALID,0,VALID,90.6311,VALID,0.0815089,VALID,25.1637,VALID,353,VALID,0,
2012-05-19, 01:35:04,VALID,1004.15,VALID,0,VALID,90.5319,VALID,0,VALID,25.1832,VALID,353,VALID,0,
2012-05-19, 01:36:04,VALID,1004.18,VALID,0,VALID,90.1047,VALID,0,VALID,25.1832,VALID,353,VALID,0,
2012-05-19, 01:37:04,VALID,1004.15,VALID,0,VALID,89.853,VALID,0,VALID,25.2416,VALID,353,VALID,0,
2012-05-19, 01:38:04,VALID,1004.14,VALID,0,VALID,89.4486,VALID,0,VALID,25.3,VALID,353,VALID,0,
2012-05-19, 01:39:04,VALID,1004.12,VALID,0,VALID,89.0748,VALID,0,VALID,25.3195,VALID,352,VALID,0.455078,
2012-05-19, 01:40:04,VALID,1004.12,VALID,0,VALID,88.8993,VALID,0,VALID,25.3584,VALID,352,VALID,0.657812,
2012-05-19, 01:41:04,VALID,1004.11,VALID,0,VALID,88.6934,VALID,0,VALID,25.3974,VALID,342,VALID,0.59375,
2012-05-19, 01:42:04,VALID,1004.1,VALID,0,VALID,88.2585,VALID,0,VALID,25.4169,VALID,348,VALID,0.91875,
2012-05-19, 01:43:04,VALID,1004.11,VALID,0,VALID,88.3882,VALID,0,VALID,25.4363,VALID,350,VALID,0.642187,
2012-05-19, 01:44:04,VALID,1004.09,VALID,0,VALID,88.1441,VALID,0,VALID,25.4363,VALID,350,VALID,0.603125,
2012-05-19, 01:45:04,VALID,1004.09,VALID,0,VALID,88.4416,VALID,0,VALID,25.4363,VALID,350,VALID,0.786328,
2012-05-19, 01:46:04,VALID,1004.06,VALID,0,VALID,88.4798,VALID,0,VALID,25.3955,VALID,345,VALID,0.819531,
2012-05-19, 01:47:04,VALID,1004.06,VALID,0,VALID,88.6781,VALID,0,VALID,25.3779,VALID,345,VALID,0.646094,
2012-05-19, 01:48:04,VALID,1004.06,VALID,0,VALID,88.8993,VALID,0,VALID,25.3584,VALID,345,VALID,0.629297,
2012-05-19, 01:49:04,VALID,1004.05,VALID,0,VALID,89.0672,VALID,0,VALID,25.3195,VALID,347,VALID,0.791797,
2012-05-19, 01:50:04,VALID,1004.02,VALID,0,VALID,88.8154,VALID,0,VALID,25.3,VALID,347,VALID,0.919922,
2012-05-19, 01:51:04,VALID,1004,VALID,0,VALID,88.907,VALID,0,VALID,25.3195,VALID,349,VALID,0.796094,
2012-05-19, 01:52:04,VALID,1003.97,VALID,0,VALID,88.8383,VALID,0,VALID,25.2981,VALID,351,VALID,0.804297,
2012-05-19, 01:53:04,VALID,1003.96,VALID,0,VALID,88.762,VALID,0,VALID,25.3195,VALID,349,VALID,0.776953,
2012-05-19, 01:54:04,VALID,1003.92,VALID,0,VALID,89.0061,VALID,0,VALID,25.3195,VALID,349,VALID,0.490625,
2012-05-19, 01:55:04,VALID,1003.92,VALID,0,VALID,89.2045,VALID,0,VALID,25.2806,VALID,349,VALID,0.503906,
2012-05-19, 01:56:04,VALID,1003.89,VALID,0,VALID,89.3647,VALID,0,VALID,25.2611,VALID,349,VALID,0.482812,
2012-05-19, 01:57:04,VALID,1003.83,VALID,0,VALID,89.4181,VALID,0,VALID,25.2007,VALID,349,VALID,0.319141,
2012-05-19, 01:58:04,VALID,1003.82,VALID,0,VALID,89.6775,VALID,0,VALID,25.2027,VALID,349,VALID,0.564844,
2012-05-19, 01:59:04,VALID,1003.82,VALID,0,VALID,89.8606,VALID,0,VALID,25.1637,VALID,349,VALID,0.680078,
2012-05-19, 02:00:04,VALID,1003.78,VALID,0,VALID,89.7919,VALID,0,VALID,25.1442,VALID,350,VALID,0.469922,
2012-05-19, 02:01:04,VALID,1003.75,VALID,0,VALID,89.6393,VALID,0,VALID,25.1229,VALID,345,VALID,0.524609,
2012-05-19, 02:02:04,VALID,1003.76,VALID,0,VALID,89.5936,VALID,0,VALID,25.1851,VALID,321,VALID,0.512891,
2012-05-19, 02:03:04,VALID,1003.74,VALID,0,VALID,89.5631,VALID,0,VALID,25.1637,VALID,322,VALID,0.585156,
2012-05-19, 02:04:04,VALID,1003.78,VALID,0,VALID,89.3723,VALID,0,VALID,25.1832,VALID,1,VALID,0.521875,
2012-05-19, 02:05:04,VALID,1003.77,VALID,0,VALID,89.3266,VALID,0,VALID,25.2221,VALID,1,VALID,0.7375,
2012-05-19, 02:06:04,VALID,1003.77,VALID,0,VALID,89.4105,VALID,0,VALID,25.2221,VALID,1,VALID,0.532422,
2012-05-19, 02:07:04,VALID,1003.76,VALID,0,VALID,89.4639,VALID,0,VALID,25.224,VALID,1,VALID,0.619531,
2012-05-19, 02:08:04,VALID,1003.75,VALID,0,VALID,89.502,VALID,0,VALID,25.1832,VALID,360,VALID,0.376563,
2012-05-19, 02:09:04,VALID,1003.78,VALID,0,VALID,89.4639,VALID,0,VALID,25.2046,VALID,360,VALID,0.342187,
2012-05-19, 02:10:04,VALID,1003.79,VALID,0,VALID,89.4181,VALID,0,VALID,25.2027,VALID,358,VALID,0.278125,
2012-05-19, 02:11:04,VALID,1003.76,VALID,0,VALID,89.3494,VALID,0,VALID,25.2221,VALID,353,VALID,0.561328,
2012-05-19, 02:12:04,VALID,1003.78,VALID,0,VALID,89.029,VALID,0,VALID,25.2221,VALID,353,VALID,0.590625,
2012-05-19, 02:13:04,VALID,1003.77,VALID,0,VALID,88.7849,VALID,0,VALID,25.2825,VALID,349,VALID,0.713672,
2012-05-19, 02:14:04,VALID,1003.78,VALID,0,VALID,88.6018,VALID,0,VALID,25.3,VALID,349,VALID,0.769141,
2012-05-19, 02:15:04,VALID,1003.78,VALID,0,VALID,88.0907,VALID,0,VALID,25.339,VALID,350,VALID,0.585547,
2012-05-19, 02:16:04,VALID,1003.8,VALID,0,VALID,87.7016,VALID,0,VALID,25.3955,VALID,345,VALID,0.562891,
2012-05-19, 02:17:04,VALID,1003.77,VALID,0,VALID,87.3354,VALID,0,VALID,25.4753,VALID,351,VALID,0.9125,
2012-05-19, 02:18:04,VALID,1003.74,VALID,0,VALID,87.0913,VALID,0,VALID,25.5337,VALID,350,VALID,0.789063,
2012-05-19, 02:19:04,VALID,1003.74,VALID,0,VALID,86.6336,VALID,0,VALID,25.5921,VALID,347,VALID,0.808594,
2012-05-19, 02:20:04,VALID,1003.73,VALID,0,VALID,86.5268,VALID,0,VALID,25.6292,VALID,347,VALID,0.582031,
2012-05-19, 02:21:04,VALID,1003.72,VALID,0,VALID,86.069,VALID,0,VALID,25.67,VALID,343,VALID,0.919531,
2012-05-19, 02:22:04,VALID,1003.71,VALID,0,VALID,85.7944,VALID,0,VALID,25.7265,VALID,4,VALID,0.728516,
2012-05-19, 02:23:04,VALID,1003.71,VALID,0,VALID,85.8631,VALID,0,VALID,25.8083,VALID,354,VALID,0.648047,
2012-05-19, 02:24:04,VALID,1003.72,VALID,0,VALID,85.8783,VALID,0,VALID,25.7869,VALID,354,VALID,0.492578,
2012-05-19, 02:25:04,VALID,1003.7,VALID,0,VALID,85.7562,VALID,0,VALID,25.8083,VALID,350,VALID,0.515625,
2012-05-19, 02:26:04,VALID,1003.72,VALID,0,VALID,85.6494,VALID,0,VALID,25.8064,VALID,347,VALID,0.488281,
2012-05-19, 02:27:04,VALID,1003.68,VALID,0,VALID,85.7028,VALID,0,VALID,25.7869,VALID,345,VALID,0.571094,
2012-05-19, 02:28:04,VALID,1003.67,VALID,0,VALID,85.6876,VALID,0,VALID,25.7869,VALID,319,VALID,0.667188,
2012-05-19, 02:29:04,VALID,1003.71,VALID,0,VALID,85.7257,VALID,0,VALID,25.8083,VALID,328,VALID,0.662109,
2012-05-19, 02:30:04,VALID,1003.68,VALID,0,VALID,85.7486,VALID,0,VALID,25.7674,VALID,334,VALID,0.375,
2012-05-19, 02:31:04,VALID,1003.7,VALID,0,VALID,85.8173,VALID,0,VALID,25.7674,VALID,334,VALID,0.255469,
2012-05-19, 02:32:04,VALID,1003.71,VALID,0,VALID,85.8707,VALID,0,VALID,25.7889,VALID,335,VALID,0.541016,
2012-05-19, 02:33:04,VALID,1003.7,VALID,0,VALID,86.1224,VALID,0,VALID,25.748,VALID,356,VALID,1.49648,
2012-05-19, 02:34:04,VALID,1003.71,VALID,0,VALID,85.6952,VALID,0,VALID,25.7889,VALID,338,VALID,0.870703,
2012-05-19, 02:35:04,VALID,1003.7,VALID,0,VALID,85.6647,VALID,0,VALID,25.8278,VALID,339,VALID,0.723047,
2012-05-19, 02:36:04,VALID,1003.69,VALID,0,VALID,85.6189,VALID,0,VALID,25.8064,VALID,354,VALID,0.575391,
2012-05-19, 02:37:04,VALID,1003.69,VALID,0,VALID,85.5503,VALID,0,VALID,25.8064,VALID,332,VALID,0.671484,
2012-05-19, 02:38:04,VALID,1003.69,VALID,0,VALID,85.5426,VALID,0,VALID,25.8259,VALID,336,VALID,0.754297,
2012-05-19, 02:39:04,VALID,1003.71,VALID,0,VALID,85.5808,VALID,0,VALID,25.8278,VALID,304,VALID,0.173047,
2012-05-19, 02:40:04,VALID,1003.73,VALID,0,VALID,85.596,VALID,0,VALID,25.8064,VALID,304,VALID,0.315234,
2012-05-19, 02:41:04,VALID,1003.74,VALID,0,VALID,85.7028,VALID,0,VALID,25.8278,VALID,304,VALID,0.108203,
2012-05-19, 02:42:04,VALID,1003.76,VALID,0,VALID,85.6342,VALID,0,VALID,25.8278,VALID,315,VALID,0.46875,
2012-05-19, 02:43:04,VALID,1003.8,VALID,0,VALID,85.7257,VALID,0,VALID,25.8064,VALID,315,VALID,0.358984,
2012-05-19, 02:44:04,VALID,1003.82,VALID,0,VALID,85.68,VALID,0,VALID,25.8083,VALID,315,VALID,0.292969,
2012-05-19, 02:45:04,VALID,1003.81,VALID,0,VALID,85.6418,VALID,0,VALID,25.8083,VALID,314,VALID,0.283594,
2012-05-19, 02:46:04,VALID,1003.85,VALID,0,VALID,85.5655,VALID,0,VALID,25.8278,VALID,321,VALID,0.627734,
2012-05-19, 02:47:04,VALID,1003.86,VALID,0,VALID,85.4358,VALID,0,VALID,25.8259,VALID,345,VALID,0.460156,
2012-05-19, 02:48:04,VALID,1003.84,VALID,0,VALID,85.4435,VALID,0,VALID,25.8064,VALID,344,VALID,0.257031,
2012-05-19, 02:49:04,VALID,1003.85,VALID,0,VALID,85.5121,VALID,0,VALID,25.8064,VALID,343,VALID,0.391406,
2012-05-19, 02:50:04,VALID,1003.87,VALID,0,VALID,85.3519,VALID,0,VALID,25.8064,VALID,348,VALID,0.689844,
2012-05-19, 02:51:04,VALID,1003.84,VALID,0,VALID,85.2451,VALID,0,VALID,25.8064,VALID,347,VALID,0.285937,
2012-05-19, 02:52:04,VALID,1003.85,VALID,0,VALID,85.1688,VALID,0,VALID,25.8064,VALID,348,VALID,0.670703,
2012-05-19, 02:53:04,VALID,1003.86,VALID,0,VALID,85.1993,VALID,0,VALID,25.8083,VALID,353,VALID,0.5875,
2012-05-19, 02:54:04,VALID,1003.87,VALID,0,VALID,85.1459,VALID,0,VALID,25.7869,VALID,348,VALID,0.529688,
2012-05-19, 02:55:04,VALID,1003.88,VALID,0,VALID,85.268,VALID,0,VALID,25.7869,VALID,344,VALID,0.603906,
2012-05-19, 02:56:04,VALID,1003.87,VALID,0,VALID,85.268,VALID,0,VALID,25.7869,VALID,302,VALID,0.507422,
2012-05-19, 02:57:04,VALID,1003.87,VALID,0,VALID,85.2375,VALID,0,VALID,25.748,VALID,346,VALID,0.460938,
2012-05-19, 02:58:04,VALID,1003.86,VALID,0,VALID,85.1993,VALID,0,VALID,25.7285,VALID,348,VALID,0.886719,
2012-05-19, 02:59:04,VALID,1003.89,VALID,0,VALID,85.1765,VALID,0,VALID,25.7285,VALID,352,VALID,0.436328,
2012-05-19, 03:00:04,VALID,1003.88,VALID,0,VALID,84.8942,VALID,0,VALID,25.7694,VALID,345,VALID,1.64375,
2012-05-19, 03:01:04,VALID,1003.88,VALID,0,VALID,84.7721,VALID,0,VALID,25.7674,VALID,346,VALID,0.655859,
2012-05-19, 03:02:04,VALID,1003.85,VALID,0,VALID,84.8026,VALID,0,VALID,25.7694,VALID,333,VALID,0.635547,
2012-05-19, 03:03:04,VALID,1003.88,VALID,0,VALID,84.7416,VALID,0,VALID,25.7674,VALID,344,VALID,1.11602,
2012-05-19, 03:04:04,VALID,1003.85,VALID,0,VALID,84.6043,VALID,0,VALID,25.8064,VALID,344,VALID,0.761328,
2012-05-19, 03:05:04,VALID,1003.87,VALID,0,VALID,84.5204,VALID,0,VALID,25.8064,VALID,351,VALID,1.23359,
2012-05-19, 03:06:04,VALID,1003.87,VALID,0,VALID,84.4288,VALID,0,VALID,25.8259,VALID,351,VALID,0.815625,
2012-05-19, 03:07:04,VALID,1003.88,VALID,0,VALID,84.4364,VALID,0,VALID,25.8064,VALID,355,VALID,1.3207,
2012-05-19, 03:08:04,VALID,1003.88,VALID,0,VALID,84.5814,VALID,0,VALID,25.7869,VALID,352,VALID,1.15586,
2012-05-19, 03:09:04,VALID,1003.86,VALID,0,VALID,84.8789,VALID,0,VALID,25.7674,VALID,356,VALID,0.885156,
2012-05-19, 03:10:04,VALID,1003.86,VALID,0,VALID,85.001,VALID,0,VALID,25.709,VALID,355,VALID,0.987109,
2012-05-19, 03:11:04,VALID,1003.85,VALID,0,VALID,84.9705,VALID,0,VALID,25.67,VALID,346,VALID,1.49961,
2012-05-19, 03:12:04,VALID,1003.83,VALID,0,VALID,85.0696,VALID,0,VALID,25.672,VALID,354,VALID,1.35977,
2012-05-19, 03:13:04,VALID,1003.85,VALID,0,VALID,85.3367,VALID,0,VALID,25.6097,VALID,348,VALID,1.34023,
2012-05-19, 03:14:04,VALID,1003.85,VALID,0,VALID,85.5198,VALID,0,VALID,25.6136,VALID,346,VALID,0.76875,
2012-05-19, 03:15:04,VALID,1003.85,VALID,0,VALID,85.5655,VALID,0,VALID,25.6136,VALID,351,VALID,0.818359,
2012-05-19, 03:16:04,VALID,1003.83,VALID,0,VALID,85.7791,VALID,0,VALID,25.5532,VALID,353,VALID,1.1043,
2012-05-19, 03:17:04,VALID,1003.86,VALID,0,VALID,85.9927,VALID,0,VALID,25.5142,VALID,353,VALID,1.65078,
2012-05-19, 03:18:04,VALID,1003.87,VALID,0,VALID,86.1224,VALID,0,VALID,25.4948,VALID,349,VALID,1.70469,
2012-05-19, 03:19:04,VALID,1003.89,VALID,0,VALID,86.1606,VALID,0,VALID,25.4948,VALID,348,VALID,1.34336,
2012-05-19, 03:20:04,VALID,1003.89,VALID,0,VALID,86.2674,VALID,0,VALID,25.5142,VALID,328,VALID,0.94375,
2012-05-19, 03:21:04,VALID,1003.9,VALID,0,VALID,86.4123,VALID,0,VALID,25.4948,VALID,328,VALID,0.714453,
2012-05-19, 03:22:04,VALID,1003.89,VALID,0,VALID,86.4276,VALID,0,VALID,25.4753,VALID,352,VALID,1.3332,
2012-05-19, 03:23:04,VALID,1003.86,VALID,0,VALID,86.4734,VALID,0,VALID,25.4753,VALID,348,VALID,1.23281,
2012-05-19, 03:24:04,VALID,1003.86,VALID,0,VALID,86.542,VALID,0,VALID,25.4753,VALID,336,VALID,0.868359,
2012-05-19, 03:25:04,VALID,1003.86,VALID,0,VALID,86.5649,VALID,0,VALID,25.4772,VALID,349,VALID,1.47266,
2012-05-19, 03:26:04,VALID,1003.88,VALID,0,VALID,86.5725,VALID,0,VALID,25.4539,VALID,348,VALID,0.663281,
2012-05-19, 03:27:04,VALID,1003.87,VALID,0,VALID,86.6565,VALID,0,VALID,25.4753,VALID,351,VALID,1.3543,
2012-05-19, 03:28:04,VALID,1003.87,VALID,0,VALID,86.6717,VALID,0,VALID,25.4753,VALID,319,VALID,0.463281,
2012-05-19, 03:29:04,VALID,1003.85,VALID,0,VALID,86.6412,VALID,0,VALID,25.4558,VALID,344,VALID,1.2125,
2012-05-19, 03:30:04,VALID,1003.84,VALID,0,VALID,86.6793,VALID,0,VALID,25.4753,VALID,336,VALID,0.558203,
2012-05-19, 03:31:04,VALID,1003.82,VALID,0,VALID,86.6565,VALID,0,VALID,25.4753,VALID,336,VALID,0.978516,
2012-05-19, 03:32:04,VALID,1003.83,VALID,0,VALID,86.6793,VALID,0,VALID,25.4948,VALID,353,VALID,0.494531,
2012-05-19, 03:33:04,VALID,1003.83,VALID,0,VALID,86.6946,VALID,0,VALID,25.5162,VALID,3,VALID,0.511328,
2012-05-19, 03:34:04,VALID,1003.83,VALID,0,VALID,86.6488,VALID,0,VALID,25.4539,VALID,346,VALID,1.2082,
2012-05-19, 03:35:04,VALID,1003.81,VALID,0,VALID,86.7938,VALID,0,VALID,25.4948,VALID,4,VALID,0.315625,
2012-05-19, 03:36:04,VALID,1003.84,VALID,0,VALID,86.8319,VALID,0,VALID,25.4753,VALID,319,VALID,0.791016,
2012-05-19, 03:37:04,VALID,1003.86,VALID,0,VALID,87.282,VALID,0,VALID,25.4539,VALID,222,VALID,0.634766,
2012-05-19, 03:38:04,VALID,1003.84,VALID,0,VALID,87.5185,VALID,0,VALID,25.4558,VALID,259,VALID,0.316016,
2012-05-19, 03:39:04,VALID,1003.82,VALID,0,VALID,87.3507,VALID,0,VALID,25.4363,VALID,238,VALID,0.568359,
2012-05-19, 03:40:04,VALID,1003.8,VALID,0,VALID,87.2362,VALID,0,VALID,25.3955,VALID,289,VALID,1.43516,
2012-05-19, 03:41:04,VALID,1003.79,VALID,0,VALID,87.4575,VALID,0,VALID,25.3584,VALID,286,VALID,0.278125,
2012-05-19, 03:42:04,VALID,1003.78,VALID,0,VALID,87.6711,VALID,0,VALID,25.3584,VALID,347,VALID,0.955469,
2012-05-19, 03:43:04,VALID,1003.78,VALID,0,VALID,87.8008,VALID,0,VALID,25.3195,VALID,349,VALID,1.16328,
2012-05-19, 03:44:04,VALID,1003.76,VALID,0,VALID,88.2356,VALID,0,VALID,25.2806,VALID,352,VALID,1.15859,
2012-05-19, 03:45:04,VALID,1003.75,VALID,0,VALID,88.2509,VALID,0,VALID,25.2416,VALID,353,VALID,1.98242,
2012-05-19, 03:46:04,VALID,1003.76,VALID,0,VALID,88.3882,VALID,0,VALID,25.2221,VALID,356,VALID,1.58711,
2012-05-19, 03:47:04,VALID,1003.71,VALID,0,VALID,88.6094,VALID,0,VALID,25.2221,VALID,357,VALID,1.01602,